Regional Weather Roundup
Issued by NWS Green Bay, WI

Home | Current Version | Previous Version | Graphics & Text | Print | Product List | Glossary Off
Versions: 1 2 3 4 5 6 7 8 9 10 11 12 13 14 15 16 17 18 19 20 21 22 23 24 25 26 27 28 29 30 31 32 33 34 35 36 37 38 39 40 41 42 43 44 45 46 47 48 49 50

000
ASUS43 KGRB 271400
RWRGRB

NORTH-CENTRAL AND NORTHEAST WISCONSIN REGIONAL WEATHER ROUNDUP
NATIONAL WEATHER SERVICE GREEN BAY WI
900 AM CDT TUE JUN 27 2017

WIZ005-009-010>012-018-019-271500-
NORTH CENTRAL WISCONSIN

CITY           SKY/WX    TMP DP  RH WIND       PRES   REMARKS
IRONWOOD       SUNNY     61  49  64 W6        30.05S
MANITOWISH WTR NOT AVBL
ARBOR VITAE    NOT AVBL
EAGLE RIVER    NOT AVBL
LAND O LAKES   SUNNY     61  49  65 W3        30.07S
RHINELANDER    SUNNY     60  52  74 W8        30.07S
PHILLIPS       MOSUNNY   60  52  75 CALM      30.07S
ANTIGO         NOT AVBL
TOMAHAWK       NOT AVBL
MERRILL        SUNNY     61  50  67 W7        30.08S
$$

WIZ013-073-271500-
NORTHEAST WISCONSIN

CITY           SKY/WX    TMP DP  RH WIND       PRES   REMARKS
IRON MOUNTAIN  SUNNY     61  49  64 VRB3      30.02F
MARINETTE      MOSUNNY   61  51  70 VRB6      30.06R
$$

WIZ017-030-035>037-045-271500-
CENTRAL WISCONSIN

CITY           SKY/WX    TMP DP  RH WIND       PRES   REMARKS
MEDFORD        NOT AVBL
WAUSAU         SUNNY     63  49  60 W12       30.07S
MOSINEE        MOSUNNY   63  48  59 W9        30.10S
MARSHFIELD     SUNNY     61  48  62 W10       30.09S
WISC RAPIDS    SUNNY     63  49  60 W10       30.11S
STEVENS POINT  NOT AVBL
WAUPACA        SUNNY     65  49  56 W9        30.09S
SHAWANO        NOT AVBL
CLINTONVILLE   SUNNY     61  48  63 NW7       30.07F
WAUTOMA        SUNNY     64  49  57 NW12      30.11S
$$

WIZ038-039-048-051-271500-
FOX VALLEY

CITY           SKY/WX    TMP DP  RH WIND       PRES   REMARKS
NWS GREEN BAY  MOSUNNY   63  54  72 W7        30.08R
APPLETON       MOSUNNY   61  48  63 W9        30.07S
OSHKOSH        SUNNY     63  50  62 W6        30.09R
FOND DU LAC    SUNNY     65  47  52 W12       30.10R
$$

WIZ022-050-052-271500-
EAST CENTRAL WISCONSIN

CITY           SKY/WX    TMP DP  RH WIND       PRES   REMARKS
EPHRAIM        FAIR      59  49  70 NW5       30.05R
WASHINGTON ISL NOT AVBL
STURGEON BAY     N/A     60  50  69 NW7         N/A
MANITOWOC      NOT AVBL
SHEBOYGAN      SUNNY     63  53  70 NW9       30.09R
$$

LMZ563-521-522-541>543-271500-
LAKESHORE

STATION/POSITION TIME  TEMP    WIND        PRES    VSBY  WAVE
                       AIR SEA DIR/SP/G                  HT/PER
                 (UTC) (F)     (DEG/KT/KT) (MB)    (MI)  (FT/S)
SHEBOYGAN LKSHOR 1300   59     290/ 10/ 15 1018.3R
KEWAUNEE LKSHORE 1330   60     290/  7/ 10 1017.5R
NORTHPORT PIER   1340   58     310/  7/ 10 1016.9S
N MID LAKE BUOY  1250   56 54  280/ 12/ 14 1017.0R         1/ 3
S GREEN BAY BUOY 1330   58     260/  6/ 10 1017.7R
CHAMBERS ISLAND  1340   60      10/  3/  6 1016.9S
MENOMINEE LKSHOR 1324          290/  5/ 10 1016.5
$$



USA.gov is the U.S. government's official web portal to all federal, state and local government web resources and services.